This demonstration page uses our WeatherBlox Daily Observations layout. Learn more.

Left ArrowRight Arrow

44.8408, -93.29828

Hourly Observations for June 4, 2015

Temp ( °F °C ) Dew Point ( °F °C ) Humidity (%) Winds ( mph kmh ) Pressure ( in mb ) Visibility ( mi km ) Precip ( " mm )
12:53 am 00:53 Cloudy 63 17.2 61 16.1 93 93 NW 7 11 29.89 1012 9 14 0.00 0.00
1:53 am 01:53 Cloudy 62 16.7 61 16.1 96 96 NNW 6 9 29.89 1012 8 13 0.00 0.00
2:53 am 02:53 Cloudy 62 16.7 61 16.1 96 96 WNW 5 7 29.90 1012 7 11 0.00 0.00
3:53 am 03:53 Cloudy 62 16.7 61 16.1 96 96 WNW 5 7 29.91 1013 8 13 0.00 0.00
4:53 am 04:53 Cloudy 62 16.7 61 16.1 96 96 WNW 3 6 29.91 1013 7 11 0.00 0.00
5:53 am 05:53 Cloudy with Mist and Fog 62 16.7 61 16.1 96 96 W 7 11 29.93 1014 3 5 0.00 0.00
6:14 am 06:14 Cloudy with Mist and Fog 63 17 61 16 94 94 W 6 9 29.94 1014 3 5 0.00 0.00
6:53 am 06:53 Cloudy with Mist and Fog 63 17.2 61 16.1 93 93 W 5 7 29.95 1014 5 8 0.00 0.00
7:45 am 07:45 Cloudy with Mist and Fog 63 17.2 61 16.1 93 93 WNW 7 11 29.94 1014 5 8 0.00 0.00
7:53 am 07:53 Cloudy with Mist and Fog 63 17.2 61 16.1 93 93 W 6 9 29.97 1015 5 8 0.00 0.00
8:03 am 08:03 Cloudy with Mist and Fog 64 18 61 16 88 88 W 7 11 29.97 1015 5 8 0.00 0.00
8:53 am 08:53 Cloudy with Mist and Fog 63 17.2 60 15.6 90 90 NW 9 15 29.99 1016 6 10 0.00 0.00
9:14 am 09:14 Cloudy with Mist and Fog 63 17.2 61 16.1 93 93 NW 10 17 29.97 1015 6 10 0.00 0.00
9:53 am 09:53 Cloudy 65 18.3 61 16.1 87 87 N 7 11 29.96 1015 8 13 0.00 0.00
10:35 am 10:35 Cloudy 65 18.3 60 15.6 84 84 N 7 11 29.94 1014 10 16 0.00 0.00
10:53 am 10:53 Cloudy 65 18.3 60 15.6 84 84 NW 6 9 29.99 1016 9 14 0.00 0.00
11:07 am 11:07 Cloudy 65 18.3 60 15.6 84 84 W 6 9 29.97 1015 10 16 0.00 0.00
11:53 am 11:53 Cloudy 66 18.9 60 15.6 81 81 WNW 6 9 30.02 1017 10 16 0.00 0.00
12:53 pm 12:53 Cloudy 68 20 60 15.6 76 76 W 5 7 30.02 1017 10 16 0.00 0.00
1:53 pm 13:53 Cloudy 68 20 60 15.6 76 76 WNW 7 11 30.02 1017 10 16 0.00 0.00
2:38 pm 14:38 Cloudy 70 21 61 16 73 73 WNW 3 6 30.00 1016 10 16 0.00 0.00
2:53 pm 14:53 Mostly Cloudy 71 21.7 61 16.1 71 71 NW 6 9 30.01 1016 10 16 0.00 0.00
3:53 pm 15:53 Partly Cloudy 73 22.8 61 16.1 66 66 WNW 6 9 30.01 1016 10 16 0.00 0.00
4:53 pm 16:53 Mostly Cloudy 73 22.8 61 16.1 66 66 N 5 7 30.01 1016 10 16 0.00 0.00
5:53 pm 17:53 Mostly Cloudy 74 23.3 61 16.1 64 64 NNW 8 13 29.99 1016 10 16 0.00 0.00
6:53 pm 18:53 Mostly Cloudy 73 22.8 61 16.1 66 66 NW 3 6 30.00 1016 10 16 0.00 0.00
7:53 pm 19:53 Cloudy 71 21.7 61 16.1 71 71 NNW 9 15 30.02 1017 10 16 0.00 0.00
8:53 pm 20:53 Cloudy 70 21.1 61 16.1 73 73 WNW 7 11 30.05 1018 10 16 0.00 0.00
9:53 pm 21:53 Mostly Cloudy 69 20.6 61 16.1 76 76 WNW 6 9 30.05 1018 10 16 0.00 0.00
10:53 pm 22:53 Partly Cloudy 67 19.4 61 16.1 81 81 WNW 5 7 30.06 1018 10 16 0.00 0.00
11:53 pm 23:53 Mostly Cloudy 66 18.9 61 16.1 84 84 NW 3 6 30.06 1018 9 14 0.00 0.00

Powered by AerisWeather